Temperature
22 21 21 21 22 23 24 25 26 26 26 26 26 25 24 23 22 20 19 19 19 18 18 18 18 18 18 17 17 17 17 18 18 18 18 18 18 18 18 18 18 18 17 17 17 17 17 17 18
22 21 21 22 22 24 24 25 25 25 26 26 25 25 24 22 21 19 19 19 19 18 18 18 18 18 17 17 17 17 17 17 17 18 18 17 17 17 17 17 17 17 17 17 17 17 17 17 17
22 21 22 23 24 24 24 25 25 26 26 26 25 24 23 22 20 19 19 19 19 18 18 18 18 17 17 17 17 17 17 17 17 17 17 17 17 17 17 17 17 17 17 17 17 17 17 17 17
21 22 24 24 24 25 26 26 26 26 26 26 25 24 22 21 20 19 19 19 18 18 18 18 17 17 17 17 17 17 17 17 17 17 17 17 17 17 17 17 17 17 17 17 17 17 17 17 17
22 23 24 24 25 26 27 27 27 26 26 26 25 23 21 20 20 19 19 19 18 18 18 17 17 17 17 17 17 17 17 17 17 17 17 17 17 17 17 17 17 17 17 17 17 17 17 17 17
23 24 24 24 25 26 27 27 27 26 26 25 25 23 21 20 19 19 19 19 18 18 17 17 17 17 17 17 17 17 17 17 17 17 17 17 17 17 17 17 17 17 17 17 17 17 17 17 17
24 24 24 25 25 25 26 26 26 26 25 25 25 23 21 20 19 19 19 18 18 18 17 17 17 17 17 17 17 17 17 16 16 16 16 16 17 17 17 17 17 17 17 16 16 16 17 17 17
24 25 25 25 25 25 26 26 26 25 25 25 24 23 21 20 19 19 19 19 18 18 18 17 17 17 17 17 17 17 17 16 16 16 16 16 16 16 16 16 16 16 16 16 16 16 16 16 16
25 24 24 25 25 25 26 26 25 25 24 24 23 22 21 20 20 19 19 19 19 18 18 18 17 17 17 17 17 17 16 16 16 16 16 16 16 16 16 16 16 16 16 16 16 16 16 16 16
25 23 24 26 26 26 26 26 26 25 25 24 23 22 21 20 20 20 19 19 19 19 18 18 18 17 17 17 17 17 16 16 16 16 16 16 16 16 16 16 16 16 16 16 16 16 16 16 16
26 25 26 26 26 26 26 26 25 25 24 24 23 22 21 21 21 20 20 20 19 19 18 18 18 17 17 17 17 17 17 17 16 16 16 16 16 16 16 16 16 16 16 16 16 16 16 16 16
26 26 26 26 26 26 26 26 25 25 24 24 23 22 21 21 21 21 20 20 19 19 19 18 18 18 17 17 17 17 17 17 16 16 16 16 16 16 16 16 16 16 16 16 16 16 16 16 16
26 26 26 26 26 26 26 26 25 24 24 23 23 22 22 22 21 21 20 20 19 19 19 18 18 18 18 17 17 17 17 17 16 16 16 16 16 16 16 16 16 16 16 16 16 16 16 16 16
26 26 26 26 26 26 26 25 25 24 24 23 23 23 22 22 21 21 20 20 20 19 19 18 18 18 18 17 17 17 17 17 17 16 16 16 16 16 16 16 16 16 16 16 16 16 16 16 16
26 26 26 26 26 26 25 24 25 24 24 24 23 23 22 22 22 21 21 20 20 19 19 18 18 18 18 17 17 17 17 17 17 16 16 17 16 16 16 16 16 16 16 16 16 16 16 15 15
26 25 24 25 26 26 25 23 25 24 24 24 24 23 23 22 22 21 21 21 20 20 19 18 18 18 18 17 17 17 17 17 17 16 16 16 16 16 16 16 16 16 16 16 16 16 15 15 15
25 24 24 25 26 26 25 24 25 25 25 24 24 24 23 22 22 22 21 21 20 20 19 19 18 18 18 17 17 17 17 17 16 16 16 16 16 16 16 16 16 16 16 15 15 15 15 15 15
24 25 25 25 26 26 25 24 25 25 25 25 24 24 23 23 22 22 21 21 20 20 19 19 18 18 18 17 17 17 17 16 16 16 16 16 16 16 16 16 16 16 15 15 15 15 15 15 15
25 25 25 26 26 26 25 25 25 25 25 24 24 24 24 23 22 22 21 21 20 20 19 19 18 18 18 17 17 17 16 16 16 16 16 16 16 16 16 16 16 15 15 15 15 15 15 15 15
25 25 25 25 26 26 25 25 25 25 25 24 24 24 24 23 23 22 21 21 20 20 19 19 19 18 18 17 17 17 16 16 16 16 16 16 16 16 16 16 15 15 15 15 15 15 15 15 15
25 25 24 24 25 26 25 24 24 25 25 25 24 24 24 23 23 22 21 20 20 20 19 19 18 18 18 17 17 17 16 16 16 16 16 16 16 16 16 16 15 15 15 15 15 15 15 15 15
24 25 25 24 24 23 25 22 23 24 24 24 24 24 24 23 23 22 21 20 20 19 19 19 18 18 18 17 17 17 16 16 16 16 16 16 16 16 16 16 15 15 15 15 15 15 15 15 15
24 25 25 24 24 23 24 23 23 24 23 24 24 24 24 23 23 22 21 20 20 19 19 19 18 18 17 17 17 16 16 16 16 16 16 16 15 15 15 15 15 15 15 15 15 15 15 15 15
25 24 24 24 23 22 24 24 23 24 24 24 25 24 24 23 23 22 21 21 20 19 19 18 18 18 17 17 17 16 16 16 16 16 16 16 15 15 15 15 15 15 15 15 15 15 15 15 15
24 23 22 22 21 22 25 24 23 25 25 25 25 24 24 23 22 22 21 20 20 19 19 18 18 17 17 17 17 16 16 16 16 16 16 16 16 15 15 15 15 15 15 15 15 15 15 15 15
24 23 22 21 22 23 25 24 24 26 25 25 25 24 23 23 22 21 21 20 19 19 18 18 18 17 17 17 17 16 16 16 16 16 16 16 16 16 15 15 15 15 15 15 15 15 15 15 15
23 23 24 23 23 22 24 24 24 25 25 25 24 24 23 22 22 21 20 20 19 19 18 18 17 17 17 17 16 16 16 16 16 16 16 16 16 16 15 15 15 15 15 15 15 15 15 15 15
23 23 23 22 21 21 23 23 23 24 24 24 23 23 22 22 21 21 20 19 19 18 18 18 17 17 17 17 16 16 16 16 16 16 16 16 16 16 16 15 15 15 15 15 15 15 15 15 15
23 23 22 22 22 21 21 22 24 24 24 24 23 23 22 22 21 20 20 19 19 18 18 17 17 17 17 17 17 16 16 16 16 16 16 16 16 16 16 16 15 15 15 15 15 15 15 15 15
23 22 22 21 21 22 21 22 25 24 24 24 23 23 22 21 21 20 19 19 18 18 17 17 17 17 17 17 16 16 16 16 16 16 16 16 16 16 16 16 16 15 15 15 15 15 15 15 15
Wind_Speed
11 11 8 3 3 1 6 7 9 8 8 9 10 9 12 12 8 7 3 3 8 11 13 12 11 11 10 10 10 10 10 11 10 11 10 10 10 9 9 9 8 8 8 8 8 8 8 8 8
11 8 4 3 2 2 5 7 9 10 7 5 8 11 12 11 10 7 4 4 9 11 12 12 11 11 10 10 10 10 11 11 11 10 10 10 10 9 9 8 8 8 9 9 9 8 8 7 7
10 7 4 3 3 5 6 7 8 8 6 6 7 10 9 7 8 5 4 6 9 12 13 13 12 11 10 10 10 10 10 10 10 10 10 10 10 9 9 8 8 8 8 8 8 8 7 7 7
5 4 4 0 5 7 7 7 6 6 5 6 7 8 8 9 7 7 6 7 10 12 13 12 12 11 11 10 10 10 10 10 9 9 9 9 9 9 9 8 8 8 7 7 8 8 8 8 7
4 3 2 2 6 6 6 7 6 7 7 8 10 10 9 10 10 9 8 8 9 10 12 13 12 11 11 10 10 9 9 9 9 9 8 8 8 8 8 8 8 8 8 8 8 8 9 9 8
4 3 1 3 6 5 6 6 7 8 7 6 8 10 7 9 8 8 8 7 8 9 11 12 12 12 11 10 10 9 9 9 9 9 9 9 9 9 9 9 9 9 9 8 9 9 9 9 7
4 3 1 4 5 4 5 6 7 6 8 7 6 7 7 8 7 7 8 6 7 8 9 10 12 11 11 10 10 9 9 8 8 8 8 8 9 9 9 9 9 9 9 9 9 9 10 8 7
4 4 1 3 4 4 5 5 5 6 6 5 5 5 8 9 7 7 7 6 6 6 7 7 10 11 11 11 10 9 9 8 7 7 7 7 8 8 8 9 9 9 9 9 9 9 9 8 5
5 2 2 2 2 4 4 4 5 4 5 6 9 10 11 11 9 8 6 5 5 5 5 7 7 7 9 10 10 9 9 8 8 7 7 7 7 7 8 9 10 9 8 8 8 8 8 6 3
2 1 2 2 2 4 4 3 3 3 4 6 9 10 11 10 9 8 7 7 6 5 5 6 6 6 6 7 9 8 7 8 7 7 7 6 6 8 9 9 8 8 8 7 6 5 5 3 2
1 1 1 2 3 2 3 3 2 2 3 4 7 10 9 9 8 6 6 7 6 5 4 5 6 6 5 4 5 4 4 5 4 5 7 6 7 7 8 6 6 6 6 5 5 3 3 3 4
1 0 2 2 2 1 1 1 2 3 4 5 6 10 10 8 8 7 6 7 6 5 5 5 5 5 5 5 3 4 3 3 4 4 7 6 3 3 4 3 4 5 4 3 3 1 3 6 8
3 2 1 1 1 1 1 1 2 3 5 5 6 8 9 7 7 7 7 6 6 6 5 5 4 5 5 4 1 4 3 3 5 4 5 6 3 3 3 3 4 4 5 3 3 4 6 6 7
2 1 3 2 2 2 2 2 3 4 5 6 6 7 7 7 7 8 7 6 7 6 6 5 4 5 5 4 3 3 4 3 5 4 5 6 5 3 3 3 3 4 5 4 4 5 5 5 5
5 5 5 3 4 2 2 4 3 5 6 6 6 6 7 7 7 7 7 6 7 8 8 6 4 4 5 5 3 4 4 4 3 3 3 6 6 5 4 3 3 3 4 5 5 6 5 5 5
8 7 6 5 5 4 4 3 4 5 5 5 5 6 7 7 7 7 7 6 6 7 8 7 4 4 5 5 3 2 4 4 3 3 3 5 7 8 5 3 3 4 5 5 4 4 4 5 4
8 8 7 5 6 5 5 2 3 4 5 5 5 6 7 8 7 7 7 6 6 6 7 7 5 5 6 5 4 3 4 4 3 4 4 5 6 7 6 3 3 5 4 3 4 4 3 4 4
6 6 5 4 4 4 5 4 3 3 4 5 4 5 6 7 7 7 6 7 6 5 6 7 6 6 6 4 3 3 4 3 3 3 3 4 4 6 5 3 4 5 4 4 4 4 3 2 3
7 7 6 4 3 4 5 5 4 4 4 4 5 5 5 6 8 7 7 7 7 6 5 6 6 6 6 4 3 3 3 2 3 2 4 4 3 5 5 3 3 3 4 4 4 3 3 2 3
9 9 7 4 3 5 5 5 4 5 6 4 4 4 4 5 7 8 7 7 7 7 7 6 6 6 6 4 3 4 3 3 3 2 3 4 3 4 4 4 3 3 4 4 4 3 2 1 1
10 8 7 6 6 8 6 6 6 6 6 5 5 4 5 5 6 8 8 7 7 7 6 6 6 7 7 6 3 3 3 2 2 2 2 2 3 3 3 3 3 3 3 3 3 2 2 1 1
8 5 7 8 8 6 6 4 5 6 6 6 5 4 5 5 6 7 8 8 8 7 6 6 7 7 6 7 5 4 4 2 2 2 3 3 3 2 2 3 3 3 3 3 2 3 2 1 0
6 5 8 10 9 9 9 7 4 6 6 6 6 5 5 5 6 6 8 9 8 7 6 6 6 7 6 7 6 5 3 3 2 2 3 2 2 2 2 3 3 3 3 3 3 3 2 1 1
6 7 10 10 8 9 11 7 3 4 5 5 6 6 5 5 6 6 7 8 7 7 6 5 6 6 6 7 7 6 5 4 4 3 3 3 2 2 2 3 3 3 3 3 3 3 2 2 2
8 7 4 5 7 7 6 5 3 3 3 3 4 4 4 4 6 6 7 8 8 8 7 6 7 7 6 6 6 6 6 5 5 4 4 3 3 2 3 3 2 2 3 3 3 2 2 2 2
8 9 6 4 5 4 4 4 4 6 5 4 4 4 4 5 4 6 7 7 8 8 8 8 8 8 7 6 5 5 5 4 4 4 4 3 3 3 3 3 3 3 3 4 3 2 1 2 2
8 8 8 9 10 8 5 4 5 5 5 4 4 4 4 4 4 5 6 7 8 8 7 8 8 8 8 8 6 5 5 6 5 4 4 3 3 4 4 4 4 3 3 3 3 2 1 2 2
9 8 5 6 5 7 6 6 4 6 6 5 4 4 3 3 4 5 6 6 7 8 7 8 8 7 8 7 6 5 5 5 5 4 4 4 3 3 4 4 5 5 5 4 3 2 2 3 2
6 8 6 6 6 5 4 1 3 4 4 4 4 4 3 3 4 4 5 6 7 7 7 8 7 7 6 7 6 6 5 5 5 4 4 4 4 5 5 4 4 5 5 5 4 3 2 2 2
7 7 7 6 6 6 5 1 3 5 4 3 3 3 4 4 4 5 5 6 7 7 7 7 7 7 6 6 6 7 6 6 6 5 5 4 4 4 5 4 4 4 4 5 5 4 3 2 2
Wind_Direction
281 261 258 259 265 206 60 58 61 49 49 45 42 56 62 49 48 84 109 66 88 96 100 95 88 88 88 90 89 86 85 88 89 88 89 87 83 79 78 78 77 77 76 75 72 72 69 65 66
287 290 278 243 261 84 71 68 65 55 50 57 57 58 69 63 72 91 96 72 86 93 94 94 93 91 89 89 92 89 89 90 90 89 91 91 87 81 77 78 79 78 76 75 72 71 72 71 71
272 273 265 258 26 60 80 74 78 74 47 49 70 60 54 63 75 95 110 97 92 93 93 98 97 94 93 92 94 94 92 91 93 92 92 91 89 87 80 77 79 80 79 78 74 71 73 73 75
278 263 246 300 68 68 79 86 83 83 66 57 75 75 69 58 85 105 112 101 97 97 98 102 101 99 97 96 98 96 96 93 93 94 93 93 90 88 84 79 81 83 80 79 78 76 77 80 76
250 261 250 102 81 76 72 75 76 66 55 56 75 88 86 83 90 98 92 87 94 100 105 109 109 106 103 100 99 97 99 96 95 96 96 97 94 91 88 83 81 81 80 81 82 81 81 80 74
272 253 248 105 94 84 79 69 63 67 67 65 91 99 95 104 100 99 92 89 97 106 114 117 119 115 112 108 104 103 103 102 101 101 99 99 100 99 93 86 82 80 81 85 85 87 86 81 74
280 284 270 114 102 90 74 59 57 63 57 40 54 95 111 109 106 107 106 102 101 109 121 131 134 127 121 118 116 114 112 112 113 112 109 107 108 105 99 92 87 84 86 91 91 94 93 86 75
284 295 341 83 101 93 83 73 65 58 67 50 48 86 119 125 128 119 117 111 112 117 121 125 130 137 136 132 128 128 128 129 132 135 135 131 127 117 109 100 95 92 93 95 99 103 101 93 81
271 283 21 52 99 104 102 99 90 83 77 70 69 82 116 130 135 130 125 114 108 108 118 119 119 123 134 136 136 145 145 150 155 161 164 160 152 130 115 106 106 102 102 105 112 115 114 110 98
245 309 49 34 54 103 112 89 100 127 101 95 102 103 119 136 143 146 145 136 127 120 115 119 119 123 127 124 140 157 155 164 173 163 161 165 127 112 111 119 118 119 120 122 129 139 137 138 128
237 41 28 51 45 71 117 108 74 94 98 99 124 134 137 147 147 142 132 122 118 113 109 111 116 122 122 122 134 134 134 152 145 127 128 112 107 120 127 137 140 140 143 142 134 153 162 122 81
216 353 349 19 44 354 40 94 86 76 86 100 114 136 147 157 148 137 127 125 128 124 117 112 114 117 114 109 121 127 122 124 111 98 113 108 106 118 127 134 133 133 122 110 120 112 83 81 74
219 225 243 235 243 266 280 180 108 108 111 121 135 145 151 156 147 135 136 134 125 119 116 109 121 115 109 109 143 119 114 104 115 105 109 106 101 109 98 96 95 96 94 87 72 72 68 63 59
242 240 246 226 231 230 239 253 182 137 142 156 157 160 160 161 152 144 151 149 145 140 132 125 127 117 116 123 113 103 97 103 101 97 102 114 113 110 98 82 76 78 86 83 87 84 77 70 65
232 239 237 219 231 219 242 249 193 154 171 173 168 165 161 161 154 156 158 159 155 147 136 130 132 123 120 114 106 104 107 106 103 104 118 121 113 104 101 91 81 75 86 82 76 77 76 80 78
233 233 233 212 218 216 225 239 148 164 184 178 177 168 162 163 170 165 159 150 143 133 130 130 145 131 113 110 97 90 102 100 99 97 84 93 107 106 95 92 97 99 93 84 81 78 72 73 76
232 230 227 210 201 219 228 237 158 179 191 183 185 175 168 169 178 166 157 149 138 131 134 137 140 126 115 115 121 96 92 95 87 85 68 71 80 94 97 89 97 93 81 70 78 75 82 91 90
246 249 237 230 188 214 232 222 197 199 197 189 185 179 172 171 174 161 152 145 137 130 133 130 130 131 124 120 112 100 91 91 84 85 76 70 86 98 104 105 89 88 87 75 77 83 76 90 86
268 270 265 257 227 239 241 228 211 209 213 207 191 186 181 174 163 159 153 144 141 143 144 140 145 141 131 127 124 118 121 113 103 99 92 76 80 106 105 96 88 82 92 97 95 90 89 85 97
261 261 268 266 255 254 246 243 212 208 213 216 207 192 182 171 158 152 154 155 155 159 164 155 148 138 129 131 145 142 131 124 114 102 100 91 66 75 111 120 115 106 96 90 96 91 72 36 83
251 258 273 279 280 269 250 244 217 201 203 201 212 204 189 182 170 161 164 160 160 162 167 162 155 148 143 138 124 113 105 93 104 121 111 85 75 44 81 112 114 110 118 121 121 114 102 39 0
259 267 268 268 266 263 244 255 213 192 198 196 202 210 195 181 172 168 164 160 162 165 168 164 163 151 143 139 127 125 128 131 145 148 145 137 120 103 83 96 110 118 111 126 139 125 113 89 18
274 289 275 268 267 268 253 248 219 176 200 194 188 196 189 173 173 169 161 161 161 161 166 164 152 142 137 132 132 140 135 142 137 122 117 117 121 112 111 110 111 112 110 116 101 88 72 65 59
268 269 262 252 253 254 241 238 222 201 191 187 179 180 181 169 163 161 152 150 151 151 154 151 140 137 140 145 150 152 149 150 143 135 136 134 129 145 143 132 133 130 122 115 113 110 100 63 43
244 251 252 227 225 234 215 220 200 160 139 137 143 154 154 148 153 152 144 149 153 155 159 157 149 146 151 159 165 165 167 161 150 147 149 145 146 151 159 141 141 133 131 127 113 108 119 110 85
242 243 249 261 254 256 226 212 142 117 111 110 112 118 126 136 144 147 149 153 155 156 161 163 163 159 163 169 175 170 161 150 147 155 154 150 152 148 147 138 136 135 141 137 125 112 107 120 114
257 249 260 276 282 269 233 186 166 142 136 128 111 104 108 120 127 137 146 155 156 156 159 161 165 166 168 171 173 171 163 155 157 155 149 151 155 151 146 148 150 155 145 138 133 127 125 92 85
255 270 270 259 274 266 244 223 200 179 165 137 124 115 113 121 123 139 142 144 148 154 161 161 170 174 167 166 172 162 155 146 141 143 153 157 154 148 148 161 168 164 156 143 130 115 111 115 107
245 241 249 268 261 269 265 239 96 110 109 126 134 136 132 136 133 128 138 140 141 149 157 165 169 165 162 165 162 154 149 153 151 153 173 174 174 167 161 171 169 164 156 146 134 132 117 121 137
257 259 257 260 265 266 272 249 80 91 82 93 114 121 121 129 130 128 129 139 143 153 162 163 164 163 163 162 161 163 160 164 169 170 180 184 178 169 162 156 152 146 147 142 140 142 138 136 122
Height
1496 1496 1497 1499 1500 1500 1502 1497 1493 1494 1494 1496 1496 1496 1500 1504 1510 1520 1520 1518 1518 1517 1516 1516 1516 1516 1517 1518 1518 1519 1519 1520 1521 1521 1522 1522 1523 1524 1524 1525 1526 1526 1527 1527 1528 1528 1528 1529 1529
1496 1498 1499 1499 1501 1506 1506 1497 1497 1497 1497 1498 1498 1500 1503 1508 1513 1517 1518 1519 1519 1518 1517 1517 1517 1517 1518 1518 1519 1520 1520 1521 1521 1522 1523 1523 1524 1524 1525 1526 1526 1527 1528 1528 1528 1529 1529 1530 1530
1497 1498 1500 1497 1499 1504 1505 1497 1497 1498 1499 1498 1500 1503 1507 1512 1515 1517 1519 1519 1519 1519 1518 1518 1518 1518 1518 1519 1520 1520 1521 1522 1522 1523 1524 1524 1525 1525 1526 1526 1527 1528 1528 1529 1529 1529 1530 1530 1531
1500 1500 1499 1498 1501 1497 1496 1496 1497 1498 1499 1499 1501 1506 1512 1515 1517 1518 1519 1520 1520 1520 1519 1519 1519 1519 1519 1520 1520 1521 1522 1523 1523 1524 1524 1525 1525 1526 1527 1527 1528 1528 1529 1529 1530 1530 1530 1531 1532
1501 1500 1499 1502 1500 1496 1495 1496 1497 1499 1500 1501 1503 1509 1514 1517 1518 1519 1520 1521 1521 1521 1521 1520 1520 1520 1521 1521 1521 1522 1523 1523 1524 1525 1525 1526 1526 1527 1527 1528 1529 1529 1530 1530 1530 1531 1531 1532 1533
1502 1498 1504 1506 1501 1497 1496 1498 1499 1500 1502 1503 1505 1509 1516 1518 1519 1520 1521 1522 1522 1522 1522 1522 1522 1522 1522 1522 1522 1523 1524 1524 1525 1526 1526 1527 1527 1528 1528 1529 1529 1530 1530 1531 1531 1532 1532 1533 1533
1502 1499 1502 1502 1502 1501 1499 1500 1501 1503 1504 1506 1506 1510 1516 1519 1520 1521 1522 1522 1523 1523 1523 1523 1523 1523 1523 1523 1524 1524 1525 1526 1526 1527 1528 1528 1529 1529 1530 1530 1530 1531 1531 1532 1532 1533 1533 1534 1535
1501 1499 1500 1501 1503 1503 1500 1502 1503 1505 1506 1508 1508 1511 1516 1519 1520 1521 1522 1523 1524 1524 1524 1524 1525 1524 1524 1525 1525 1526 1526 1527 1528 1528 1529 1530 1530 1531 1531 1531 1532 1532 1532 1533 1534 1534 1535 1536 1537
1501 1503 1506 1503 1503 1502 1501 1502 1505 1507 1508 1509 1510 1512 1516 1518 1520 1522 1523 1524 1525 1525 1526 1526 1526 1526 1526 1527 1527 1527 1528 1529 1529 1530 1531 1531 1532 1532 1533 1533 1533 1534 1534 1535 1536 1536 1537 1538 1539
1500 1505 1503 1499 1498 1500 1501 1503 1504 1506 1508 1510 1512 1515 1517 1519 1520 1521 1523 1524 1525 1526 1527 1527 1527 1528 1528 1528 1528 1529 1529 1530 1530 1531 1532 1533 1534 1534 1535 1535 1535 1536 1536 1537 1538 1538 1539 1540 1541
1499 1501 1499 1499 1500 1500 1501 1503 1505 1506 1508 1510 1513 1515 1517 1519 1520 1522 1523 1524 1525 1526 1527 1528 1528 1529 1529 1530 1530 1531 1531 1532 1532 1533 1534 1534 1535 1536 1536 1537 1537 1538 1538 1539 1539 1540 1541 1541 1542
1499 1499 1500 1500 1501 1502 1502 1503 1505 1507 1509 1511 1513 1514 1517 1519 1520 1521 1523 1524 1525 1527 1528 1529 1529 1530 1530 1531 1531 1532 1532 1533 1534 1534 1535 1536 1536 1537 1538 1538 1539 1539 1540 1541 1541 1541 1542 1543 1543
1500 1500 1501 1502 1502 1503 1503 1504 1506 1508 1510 1511 1513 1515 1516 1518 1520 1521 1523 1524 1526 1527 1528 1529 1530 1531 1531 1531 1532 1533 1534 1534 1535 1535 1536 1537 1537 1538 1539 1540 1540 1541 1542 1542 1542 1543 1544 1544 1544
1500 1500 1501 1501 1502 1503 1503 1504 1505 1507 1510 1511 1513 1514 1515 1517 1519 1521 1522 1524 1525 1526 1528 1529 1530 1531 1531 1532 1533 1534 1534 1535 1536 1536 1537 1538 1538 1539 1540 1541 1541 1542 1543 1543 1543 1544 1545 1545 1546
1500 1500 1500 1500 1501 1502 1504 1505 1504 1506 1508 1510 1511 1513 1515 1517 1519 1520 1522 1523 1525 1526 1527 1529 1530 1531 1532 1532 1533 1534 1535 1535 1536 1537 1538 1539 1540 1540 1541 1542 1542 1543 1544 1544 1545 1546 1546 1546 1547
1498 1500 1504 1500 1499 1500 1506 1510 1503 1505 1506 1508 1510 1512 1514 1516 1518 1519 1521 1523 1524 1526 1527 1528 1530 1531 1532 1533 1534 1535 1535 1536 1537 1538 1538 1540 1541 1541 1542 1542 1543 1544 1545 1546 1546 1547 1547 1548 1548
1499 1504 1503 1500 1496 1498 1502 1506 1503 1503 1504 1506 1508 1510 1511 1514 1516 1518 1520 1522 1524 1525 1526 1528 1529 1531 1532 1533 1534 1535 1536 1537 1537 1538 1539 1540 1541 1542 1543 1543 1544 1545 1546 1547 1547 1548 1548 1549 1550
1503 1499 1499 1499 1495 1497 1500 1502 1501 1502 1503 1504 1506 1508 1509 1512 1514 1516 1519 1520 1522 1524 1526 1527 1528 1530 1531 1533 1534 1535 1536 1537 1538 1539 1540 1541 1542 1543 1543 1544 1545 1546 1547 1547 1548 1549 1550 1550 1551
1495 1497 1498 1496 1492 1496 1499 1500 1499 1500 1501 1502 1504 1506 1507 1509 1512 1515 1517 1519 1521 1523 1525 1526 1528 1529 1531 1532 1533 1535 1536 1538 1538 1539 1540 1541 1542 1543 1544 1545 1546 1547 1547 1548 1549 1550 1551 1551 1552
1495 1498 1498 1494 1491 1494 1497 1497 1496 1497 1499 1500 1502 1504 1505 1508 1510 1512 1515 1517 1519 1521 1524 1526 1527 1528 1530 1531 1533 1534 1536 1537 1538 1539 1540 1541 1543 1543 1544 1545 1546 1547 1548 1549 1550 1551 1551 1552 1553
1496 1498 1499 1499 1495 1492 1496 1500 1496 1495 1496 1498 1500 1501 1503 1506 1508 1510 1513 1515 1517 1520 1522 1524 1526 1527 1529 1530 1532 1534 1535 1537 1538 1539 1540 1541 1542 1544 1545 1545 1546 1547 1548 1549 1550 1551 1552 1552 1553
1497 1493 1495 1497 1501 1502 1497 1510 1498 1493 1493 1494 1497 1499 1501 1503 1505 1508 1510 1512 1515 1518 1520 1522 1524 1526 1528 1529 1531 1533 1534 1536 1537 1539 1540 1541 1542 1543 1545 1546 1546 1547 1549 1550 1551 1552 1552 1553 1553
1494 1492 1494 1495 1499 1501 1496 1503 1499 1490 1494 1492 1493 1496 1498 1500 1503 1505 1508 1510 1513 1516 1518 1520 1522 1524 1526 1528 1530 1532 1534 1535 1537 1538 1539 1541 1542 1543 1544 1546 1547 1548 1549 1550 1551 1551 1553 1553 1554
1492 1494 1494 1494 1499 1509 1496 1500 1502 1490 1489 1488 1490 1493 1496 1498 1500 1503 1506 1508 1511 1513 1516 1518 1520 1522 1524 1527 1529 1531 1532 1534 1536 1537 1538 1540 1541 1542 1544 1545 1546 1547 1549 1550 1551 1552 1552 1553 1554
1493 1501 1511 1512 1512 1505 1486 1493 1495 1483 1482 1485 1487 1490 1493 1496 1499 1501 1504 1506 1509 1511 1514 1516 1518 1521 1523 1525 1528 1530 1532 1533 1535 1536 1538 1539 1541 1542 1543 1545 1546 1547 1548 1550 1551 1552 1552 1553 1554
1492 1496 1511 1517 1510 1498 1486 1491 1487 1479 1482 1484 1487 1489 1492 1495 1497 1499 1502 1504 1507 1509 1512 1514 1517 1519 1521 1524 1526 1529 1531 1532 1534 1536 1537 1539 1540 1541 1543 1544 1545 1547 1548 1549 1550 1551 1552 1553 1554
1493 1493 1491 1499 1498 1502 1492 1486 1483 1479 1482 1485 1487 1489 1492 1494 1496 1498 1500 1502 1505 1507 1510 1512 1515 1518 1520 1523 1525 1528 1530 1531 1533 1535 1537 1538 1540 1541 1542 1543 1545 1546 1547 1549 1550 1551 1552 1553 1553
1490 1491 1495 1501 1509 1510 1496 1491 1490 1483 1482 1484 1487 1489 1492 1494 1495 1497 1499 1501 1503 1505 1508 1511 1513 1516 1519 1521 1524 1526 1529 1530 1532 1534 1536 1537 1539 1540 1542 1543 1544 1546 1547 1548 1549 1550 1552 1553 1553
1492 1493 1494 1496 1497 1507 1508 1499 1478 1479 1480 1483 1485 1488 1491 1493 1495 1496 1498 1500 1502 1504 1507 1510 1513 1515 1518 1520 1523 1525 1527 1529 1531 1533 1535 1537 1538 1540 1541 1542 1544 1545 1546 1548 1549 1550 1551 1552 1553
1488 1490 1494 1504 1502 1496 1502 1500 1477 1478 1480 1482 1485 1487 1490 1492 1494 1496 1498 1499 1501 1504 1506 1509 1511 1514 1516 1519 1521 1524 1526 1528 1530 1531 1533 1536 1537 1539 1540 1541 1543 1544 1546 1547 1548 1549 1551 1552 1552